RH
7 6 5 4 3 3 3 5 7 8 6 4 3 2 2 2 2 3 3 4 4 4 6 7 11 17 15 13 27 36 52 61 68 69 68 82 80 73 70 70 75 78 81
6 5 5 5 4 3 4 6 8 8 6 4 2 2 2 2 3 3 4 5 5 6 7 8 11 18 20 19 34 40 59 67 80 81 70 85 92 75 73 72 76 74 75
5 5 4 4 3 4 5 7 8 7 5 3 2 2 2 4 4 3 5 6 6 9 11 14 17 19 20 28 33 47 49 59 72 82 74 86 96 76 75 68 70 77 78
7 5 4 4 4 4 6 8 9 7 5 3 2 3 3 3 2 3 5 7 8 8 11 29 34 50 53 37 39 48 64 60 67 75 73 75 74 77 70 68 70 77 80
8 6 5 4 4 5 6 8 9 8 5 3 3 3 3 3 3 4 6 18 23 29 23 21 28 46 58 62 56 52 57 70 72 74 71 68 68 70 72 75 79 79 80
7 7 7 6 6 6 6 9 9 8 6 4 3 3 3 3 4 4 6 10 17 14 16 26 36 50 50 58 66 70 69 78 67 79 72 67 72 70 81 87 86 86 87
8 8 8 9 8 8 8 10 10 9 7 5 3 3 3 4 4 3 11 14 14 19 25 28 36 45 51 55 68 69 86 94 79 71 74 73 79 82 83 91 94 92 93
12 11 11 12 10 10 10 10 10 10 8 7 4 3 4 4 5 2 14 5 6 15 21 42 52 66 64 59 66 67 76 95 79 83 78 71 82 91 94 94 96 94 95
21 16 16 17 13 11 12 11 11 10 10 8 5 3 4 4 6 3 6 13 5 6 21 41 57 82 76 72 81 72 88 97 82 77 78 84 88 92 94 90 92 90 90
43 42 43 29 36 25 12 12 12 12 12 10 7 4 4 4 6 6 3 12 9 4 25 40 60 78 86 91 78 68 88 93 81 84 93 87 82 95 91 92 91 89 91
60 36 28 34 26 24 18 12 13 13 14 12 9 6 4 4 4 7 6 3 2 4 24 50 56 89 94 83 79 81 88 90 91 96 83 77 84 91 96 97 96 96 97
23 36 45 39 22 22 21 15 14 14 15 14 11 8 5 4 4 6 7 6 2 2 26 51 60 94 96 97 80 89 92 96 96 89 79 80 92 96 96 95 96 97 97
15 19 19 21 24 29 28 20 19 18 17 15 13 10 6 5 4 4 6 8 5 2 22 57 77 75 89 81 85 86 92 94 97 99 85 96 96 96 96 96 96 96 96
9 11 12 14 18 18 22 20 19 15 13 14 13 11 8 6 4 4 4 7 9 3 5 30 54 58 88 78 82 91 93 96 97 99 95 92 95 95 96 96 96 96 96
11 8 8 10 12 14 16 16 16 17 16 12 12 11 9 7 5 4 4 6 8 8 2 20 51 50 82 86 97 88 92 93 94 100 96 92 95 95 97 96 97 93 96
15 14 13 10 8 9 13 14 15 15 16 16 13 10 9 8 6 5 5 5 6 10 3 19 40 81 66 86 93 88 93 86 91 99 98 98 96 98 96 96 96 92 97
12 13 14 16 14 8 8 12 13 13 14 15 15 11 10 8 7 6 6 5 5 9 6 35 69 79 88 98 95 97 99 88 91 96 99 97 93 93 95 96 96 92 93
10 10 14 14 16 18 12 9 14 14 14 13 14 14 11 9 8 7 6 7 6 7 8 43 73 83 96 98 97 98 99 100 90 96 98 96 90 96 95 99 97 97 96
13 11 10 12 13 17 20 19 15 16 17 14 13 15 15 13 11 9 8 8 7 7 9 41 86 91 97 97 98 99 100 97 94 94 98 97 95 98 96 98 99 97 96
22 18 16 14 11 12 17 21 22 22 16 18 15 15 15 15 13 10 8 9 8 7 9 30 91 95 97 97 97 97 96 95 96 95 97 96 99 97 95 97 97 97 94
28 25 25 25 20 16 16 15 21 23 24 20 20 16 13 13 12 10 9 9 10 8 10 9 74 80 79 96 96 96 96 91 83 92 96 96 97 99 96 97 99 94 90
40 33 30 29 29 24 20 16 15 17 22 28 21 21 17 12 11 11 10 10 11 10 8 10 26 85 98 97 97 97 95 85 85 90 97 96 96 89 95 98 98 97 96
71 54 42 34 33 31 26 28 18 14 21 31 27 25 23 19 14 13 12 11 17 14 10 11 8 81 92 96 96 96 96 92 93 97 98 97 96 96 96 97 96 96 96
46 52 63 48 38 41 40 74 24 21 17 29 33 31 31 27 23 19 16 14 15 15 15 14 12 8 61 94 92 96 96 98 96 97 95 95 97 96 96 97 99 95 97
87 82 90 66 58 52 47 41 55 32 30 51 36 34 32 34 28 25 22 16 15 15 16 16 15 13 8 17 73 88 96 97 95 96 97 96 96 97 97 96 97 97 96
100 97 82 100 78 59 62 84 90 69 68 47 81 48 37 39 33 30 28 22 17 15 16 18 17 15 14 13 8 7 49 94 97 97 96 95 97 96 96 97 96 96 96
Wind_Speed
24 23 23 22 20 19 18 17 16 16 15 16 18 16 15 14 14 16 18 19 18 18 18 17 16 17 18 19 19 21 20 19 18 19 18 16 16 18 17 16 16 16 15
24 24 24 20 19 18 18 18 17 17 16 17 18 17 16 14 16 19 20 19 18 19 19 19 18 19 19 21 20 22 21 20 19 19 19 18 20 19 18 17 18 18 17
23 23 22 20 20 20 20 19 19 18 17 18 19 17 15 16 18 21 21 20 20 20 20 20 19 20 21 23 23 21 22 22 20 18 19 19 20 20 20 19 19 18 18
24 21 21 22 21 21 21 20 20 19 18 20 19 17 16 17 19 20 19 19 19 20 18 17 20 22 23 25 24 23 21 22 22 19 20 19 18 20 21 21 20 20 19
24 21 21 22 23 23 22 23 21 21 20 21 19 17 16 17 16 16 17 17 17 17 18 19 21 22 22 25 25 24 23 23 23 22 21 21 22 23 22 22 22 21 20
23 21 21 22 24 24 24 24 24 23 22 22 20 18 17 16 15 16 16 15 15 17 18 20 23 25 25 24 25 24 25 26 25 24 24 23 24 24 23 23 22 21 20
27 24 23 24 24 24 25 27 25 25 23 22 22 20 19 18 17 17 16 16 15 17 18 22 24 26 26 25 25 27 26 29 26 27 25 25 25 25 23 22 22 21 20
28 28 26 25 26 27 27 27 27 27 25 24 23 22 21 20 19 17 18 16 18 18 18 21 22 24 27 25 27 27 29 29 29 29 28 26 26 25 23 22 22 22 22
30 31 29 28 27 29 30 29 29 29 28 26 25 24 24 23 21 19 20 20 18 18 18 22 20 23 29 29 28 27 27 34 34 30 29 28 23 22 22 23 24 24 25
34 36 35 32 31 31 33 33 33 31 31 29 27 27 26 25 23 21 20 21 19 19 17 17 19 21 24 27 23 27 26 34 32 32 28 24 22 22 26 28 26 24 25
35 35 34 36 37 37 38 36 36 35 34 31 29 28 29 28 25 22 20 19 21 19 17 17 18 18 17 22 24 26 25 34 35 31 26 24 22 30 31 31 31 25 26
39 39 38 36 35 36 38 39 38 36 34 33 31 30 31 29 27 24 22 19 21 20 17 17 17 17 14 16 23 22 28 30 33 31 29 27 22 34 34 40 31 27 24
42 40 41 41 39 36 36 37 38 37 36 35 34 32 32 31 29 27 24 22 21 21 19 16 17 18 16 19 22 26 31 33 31 30 28 19 33 15 27 27 16 24 24
45 43 42 42 43 40 42 39 41 39 37 36 37 34 33 34 32 29 27 25 24 23 22 19 21 19 17 19 26 30 34 34 32 30 29 34 24 21 22 21 27 22 20
50 48 44 42 42 41 41 42 42 41 39 38 38 37 35 36 34 31 29 27 26 24 23 23 22 23 15 23 24 29 40 39 36 26 26 27 26 25 27 26 21 21 20
50 51 50 47 45 43 42 43 41 42 41 40 40 40 37 37 36 32 30 30 27 25 24 23 24 27 23 28 28 31 35 35 41 37 36 37 28 26 23 24 23 23 22
55 51 49 50 48 46 43 44 43 41 39 40 40 39 38 37 37 33 31 30 28 26 24 22 20 28 26 29 33 37 40 39 39 40 35 37 34 32 26 23 23 24 28
61 58 53 51 50 49 48 45 44 44 41 40 41 41 38 38 38 35 33 30 29 27 23 21 19 29 25 34 37 37 42 42 41 38 36 36 35 35 30 26 27 28 28
69 64 61 57 52 50 50 49 47 44 45 42 41 43 41 39 38 37 35 31 29 28 22 18 24 26 33 32 36 37 41 42 41 39 43 37 37 40 34 31 31 35 33
77 71 65 63 60 54 53 52 51 49 47 45 41 42 42 41 39 39 36 33 30 30 23 21 17 21 36 37 39 36 35 34 40 42 39 37 39 45 41 37 36 33 30
81 78 72 67 65 62 57 57 54 51 50 47 43 42 42 41 40 40 37 35 31 31 24 22 26 21 20 35 39 40 36 35 36 36 37 38 37 40 42 37 38 36 32
80 81 78 73 69 68 67 58 58 55 52 50 46 45 43 42 41 40 38 36 32 31 30 27 23 27 33 38 40 39 36 34 34 34 37 37 37 40 40 39 39 37 35
75 77 80 75 70 71 70 63 63 61 56 53 51 47 45 44 43 41 39 38 36 33 32 29 26 27 28 35 32 33 31 32 31 32 38 39 42 42 41 41 43 43 42
71 72 74 76 73 72 71 68 68 66 63 59 57 50 49 47 45 44 42 41 39 35 34 32 31 29 30 27 27 31 34 33 32 37 36 39 48 48 45 44 43 44 46
59 64 67 72 73 71 73 72 65 70 65 65 57 55 54 50 49 48 45 43 42 39 37 35 34 33 31 30 32 38 39 39 36 37 36 40 43 46 49 45 43 46 47
62 63 62 67 70 72 70 58 69 78 65 68 59 59 59 54 52 50 48 46 44 43 41 38 36 34 33 33 32 33 36 39 46 50 44 43 42 48 48 49 49 48 49
Wind_Direction
235 232 233 233 231 230 234 239 248 253 259 264 268 264 264 270 274 279 275 269 266 266 262 260 259 255 250 245 235 229 228 227 222 220 220 215 210 212 207 202 199 199 199
238 240 238 235 238 236 236 240 248 254 257 267 266 265 269 272 276 276 271 266 261 260 258 257 257 251 249 245 236 233 227 227 225 222 219 212 206 210 209 206 204 203 202
243 240 243 241 239 239 239 242 246 253 258 264 263 267 271 273 274 272 270 262 254 254 255 255 256 255 249 248 240 233 231 230 230 223 220 213 214 205 208 209 210 207 208
248 246 244 241 240 241 242 242 247 252 257 258 260 267 270 274 272 271 267 262 252 252 252 256 260 257 251 246 243 233 228 226 227 223 221 213 208 212 212 210 211 211 210
246 246 246 245 243 242 241 244 247 252 255 258 261 265 271 269 272 272 267 259 249 249 249 258 262 254 252 248 243 237 229 226 224 221 219 214 211 211 212 211 211 212 213
250 251 251 250 248 247 244 243 247 251 253 259 260 263 267 267 269 266 262 248 248 252 252 257 260 255 252 248 241 239 231 226 221 221 217 215 215 212 211 211 210 210 215
254 247 248 251 251 247 243 243 244 250 250 256 258 257 265 265 262 259 256 251 252 255 259 260 262 256 251 249 242 236 235 220 219 220 218 217 215 215 214 212 209 210 212
258 257 250 247 248 247 246 246 247 249 250 252 253 252 258 261 261 257 255 254 251 257 265 255 260 259 251 243 240 235 236 230 218 217 217 219 220 218 215 215 214 214 215
257 256 256 252 251 249 249 247 248 250 253 251 251 251 254 257 258 256 252 256 261 257 261 256 265 263 247 249 243 236 232 231 214 216 217 219 223 224 221 219 216 218 221
252 256 253 256 250 253 249 247 248 249 253 253 251 250 252 255 257 257 258 256 256 261 267 259 265 267 246 242 236 235 247 221 213 218 218 222 227 229 224 223 218 217 224
249 251 255 249 244 244 247 245 247 247 249 251 251 250 250 252 256 256 260 262 258 259 271 261 266 247 247 231 227 220 229 211 211 215 217 220 230 234 236 223 216 211 219
242 244 248 251 249 247 249 248 248 248 249 250 251 249 250 252 254 256 259 263 261 259 265 261 259 247 236 219 216 221 200 209 215 211 215 216 215 203 199 205 220 207 199
256 247 247 250 249 250 252 251 252 249 250 251 250 249 249 250 252 253 256 260 264 257 258 253 241 247 235 219 216 216 208 211 212 217 205 182 181 192 175 180 190 200 219
258 257 252 245 245 245 247 247 250 251 249 250 249 249 247 247 249 249 252 252 259 257 254 256 246 240 243 224 214 214 211 200 201 215 215 215 231 227 234 222 231 247 243
259 256 255 254 254 247 245 244 245 249 248 249 249 249 245 245 245 247 250 252 254 259 253 250 247 238 241 209 225 214 195 197 196 197 219 219 219 227 231 238 240 248 243
257 261 258 254 252 253 252 248 245 246 246 244 246 247 246 244 245 244 247 249 250 257 255 246 248 245 220 209 195 192 199 199 196 197 211 218 208 220 218 229 238 240 236
258 255 256 258 253 251 248 251 249 247 247 245 246 247 244 241 242 243 245 249 248 252 257 247 253 218 210 213 209 211 203 202 199 201 211 212 214 222 224 234 235 235 234
248 253 253 252 256 253 251 247 250 251 247 244 242 243 241 241 242 239 243 244 246 248 252 244 223 203 212 209 202 199 203 205 207 212 212 211 223 227 236 239 242 229 220
244 244 248 251 249 251 252 251 249 249 251 249 243 243 242 241 241 239 240 240 242 245 249 243 215 217 211 195 194 200 206 209 213 216 215 225 225 224 237 236 237 229 237
243 241 241 244 247 245 248 249 247 247 248 249 246 244 243 242 240 240 237 238 235 238 230 230 201 214 203 195 200 205 209 215 221 214 220 226 224 228 233 235 227 229 232
240 240 238 238 242 243 241 246 244 244 244 245 245 243 241 242 240 239 236 236 235 234 231 229 220 214 234 216 207 211 211 216 222 219 219 219 221 223 225 234 227 225 229
238 238 237 234 236 239 241 239 245 244 242 242 241 243 240 239 240 236 235 236 236 235 225 223 223 221 212 213 214 219 213 217 218 220 223 221 225 224 227 226 218 230 236
241 238 236 232 229 234 236 237 240 245 241 238 237 239 241 238 239 236 235 235 230 229 230 223 221 215 220 219 214 219 218 223 223 230 228 227 227 218 227 231 231 236 239
241 243 240 237 230 228 229 233 234 237 242 238 235 232 237 237 236 236 234 232 232 229 228 226 222 222 217 217 220 228 221 225 240 235 236 234 234 235 238 234 233 234 239
232 237 236 236 231 224 226 230 233 230 235 238 233 232 230 233 234 235 234 233 232 231 230 228 224 221 222 219 222 227 230 237 240 235 240 247 239 236 236 237 236 238 240
229 227 237 238 236 230 225 222 228 230 234 232 233 234 231 228 231 233 234 232 232 231 231 231 229 226 226 227 228 232 232 236 242 234 245 244 245 241 239 237 242 246 248